Skip Page Navigation
NASA JPL Caltech
NASA Logo - Jet Propulsion Laboratory + View the NASA Portal
+ Center for Near-Earth Object Studies
JPL Home Earth Solar System Stars & Galaxies Technology
JPL Solar System Dynamics
BODIES ORBITS EPHEMERIDES TOOLS PHYSICAL DATA DISCOVERY FAQ SITE MAP
JPL Small-Body Database Browser
Search: [ help ]  
413432 (2004 YL19)
Classification: Main-belt Asteroid          SPK-ID: 2413432
Ephemeris | Orbit Diagram | Orbital Elements | Mission Design | Physical Parameters | Discovery Circumstances | Close-Approach Data ]

[ show orbit diagram ]
Orbital Elements at Epoch 2459000.5 (2020-May-31.0) TDB
Reference: JPL 15 (heliocentric ecliptic J2000)
 Element Value Uncertainty (1-sigma)   Units 
e .2057103883531742 5.5913e-08  
a 3.064013014906239 4.0071e-08 au
q 2.433713707690697 1.6933e-07 au
i 16.50116580508822 6.7479e-06 deg
node 110.9707588626829 2.7319e-05 deg
peri 350.2518466707898 3.5325e-05 deg
M 320.6078229257816 2.3756e-05 deg
tp 2459214.859047272491
(2020-Dec-31.35904727)
0.00013169 TDB
period 1958.999546349088
5.36
3.8429e-05
1.052e-07
d
yr
n .183767270733124 3.6049e-09 deg/d
Q 3.694312322121781 4.8314e-08 au
  Orbit Determination Parameters
   # obs. used (total)      160  
   data-arc span      4587 days (12.56 yr)  
   first obs. used      2004-12-18  
   last obs. used      2017-07-10  
   planetary ephem.      DE431  
   SB-pert. ephem.      SB431-N16  
   condition code      0  
   norm. resid. RMS      .62012  
   source      ORB  
   producer      Otto Matic  
   solution date      2019-Jul-13 19:31:33  

Additional Information
 Earth MOID = 1.45204 au 
 Jupiter MOID = 1.47566 au 
 T_jup = 3.138 
[ hide covariance matrix ]
Orbital Elements at Epoch 2457004.5 (2014-Dec-13.0) TDB
Reference: JPL 15 (heliocentric ecliptic J2000)
 Element Value Uncertainty (1-sigma)   Units 
e .2033374570870615 5.6299e-08  
q 2.44222372760426 1.6997e-07 au
tp 2457257.531381056655
(2015-Aug-23.03138106)
0.00011546 TDB
node 111.1002407574792 2.7304e-05 deg
peri 350.5614477539714 3.5478e-05 deg
i 16.49702221322137 6.7506e-06 deg
  Orbit Determination Parameters
   # obs. used (total)      160  
   data-arc span      4587 days (12.56 yr)  
   first obs. used      2004-12-18  
   last obs. used      2017-07-10  
   planetary ephem.      DE431  
   SB-pert. ephem.      SB431-N16  
   condition code      0  
   norm. resid. RMS      .62012  
   source      ORB  
   producer      Otto Matic  
   solution date      2019-Jul-13 19:31:33  

Additional Information
 Jupiter MOID = 1.47566 au 
 T_jup = 3.138 
Orbit Covariance (6×6)
  e q tp node peri i
e 3.16952147438611E-15 -9.401412042773936E-15 1.619742889443731E-12 4.319573860016274E-14 1.802934192951022E-13 -9.747898183116054E-16
q -9.401412042773936E-15 2.888986750632334E-14 -3.808455796716461E-12 -1.104974723191069E-13 -3.796590088659736E-13 8.031533613501943E-15
tp 1.619742889443731E-12 -3.808455796716461E-12 1.333183471815564E-8 8.969944011107973E-11 2.685986218522387E-9 -3.394462849883419E-12
node 4.319573860016274E-14 -1.104974723191069E-13 8.969944011107973E-11 7.454847021085412E-10 -6.971011304931361E-10 5.153023495818328E-11
peri 1.802934192951022E-13 -3.796590088659736E-13 2.685986218522387E-9 -6.971011304931361E-10 1.258675667244377E-9 -5.039389475555389E-11
i -9.747898183116054E-16 8.031533613501943E-15 -3.394462849883419E-12 5.153023495818328E-11 -5.039389475555389E-11 4.556999192579984E-11

Ephemeris | Orbit Diagram | Orbital Elements | Mission Design | Physical Parameters | Discovery Circumstances | Close-Approach Data ]

Physical Parameter Table
Parameter Symbol Value Units Sigma Reference Notes
absolute magnitude H 16.1   n/a MPO419032  

413432 (2004 YL19)          Discovered 2004-Dec-18 by Mt. Lemmon Survey at Mount Lemmon
Reference: Last Updated: 2014-11-10

[ hide close-approach data ]
Close-Approach Data   ...sorted by Date/Time (TDB)
Date/Time (TDB) Time Uncertainty
(days_HH:MM)
Body Nominal Distance (au) Minimum Distance (au) Maximum Distance (au) V-relative (km/s) V-infinity (km/s) JD (TDB) Time Uncertainty (minutes) Semi-major axis (km) Semi-minor axis (km) range-LOV angle (deg) N-sigma BP Orbit Ref. Reference Modified
1938-May-12 12:23 00:05 Jupiter 1.66853747013154 1.6685332448045 1.66854169560702 3.54802736249191 3.4019422081961 2429031.015984200 5.16527950968124 837.684153753104 29.3951454235277 75.0644431476864 1836579.62215433 T 15 CATAB v2.0e-lin.ifort 2019-Jul-13 19:31:37 2019-Jul-13 19:31
1948-Feb-18 16:53 00:05 Jupiter 1.90093918538669 1.90093482332659 1.90094354745132 3.24984405164935 3.10971449179551 2432600.203299916 4.74039279960408 300.999848946542 167.053122377085 49.2140762424773 1966100.37196002 T 15 CATAB v2.0e-lin.ifort 2019-Jul-13 19:31:37 2019-Jul-13 19:31
1997-Mar-20 05:06 00:01 Jupiter 1.52444474342387 1.52444360635164 1.52444588051777 3.65132402494069 3.49584229100297 2450527.712436741 1.25988807903028 316.644982600171 15.4721719675276 79.9488308978378 1970677.16735906 T 15 CATAB v2.0e-lin.ifort 2019-Jul-13 19:31:37 2019-Jul-13 19:31
2056-Feb-19 23:21 00:02 Jupiter 1.49005251066023 1.49005177127138 1.4900532500529 3.67722374750424 3.51924304101921 2472048.472972673 2.26245208645292 354.809578954082 34.7635129836163 -88.2634816149292 2116885.99431729 T 15 CATAB v2.0e-lin.ifort 2019-Jul-13 19:31:37 2019-Jul-13 19:31
2115-Jan-17 08:51 00:06 Jupiter 1.56257314611839 1.56256954724623 1.56257674507581 3.65801079743422 3.50669430179253 2493563.868744862 5.99518903035881 643.451851810714 57.8699403876421 -74.4556870776676 2237494.85680947 T 15 CATAB v2.0e-lin.ifort 2019-Jul-13 19:31:37 2019-Jul-13 19:31
2164-Feb-19 03:59 00:11 Jupiter 1.80584463993625 1.80583622392065 1.80585305611774 3.13948620834375 2.98634953131187 2511493.666178111 11.2320205689588 989.473699518201 63.0172899263411 61.5488364238075 1416803.17678976 T 15 CATAB v2.0e-lin.ifort 2019-Jul-13 19:31:37 2019-Jul-13 19:31
2173-Nov-18 05:07 00:10 Jupiter 1.74994849184833 1.74993960036619 1.74995738335404 3.56865836259532 3.4303452134743 2515053.713121325 10.1747333602289 560.99585985121 150.084187792978 -37.4483591113673 1783249.12295728 T 15 CATAB v2.0e-lin.ifort 2019-Jul-13 19:31:37 2019-Jul-13 19:31
Ephemeris | Orbit Diagram | Orbital Elements | Mission Design | Physical Parameters | Discovery Circumstances | Close-Approach Data ]
ABOUT SSD CREDITS/AWARDS PRIVACY/COPYRIGHT GLOSSARY LINKS
FirstGov 2020-Aug-11 03:22 UT
(server date/time)  
NASA Home Page
Site Manager:   Ryan S. Park
Webmaster  Alan B. Chamberlin